sat.trackr.live / text

‹ back to catalog

STARLINK-35772

NORAD 66976 · 2025-288T

PAYLOAD ACTIVE UNKNOWN

§ Identity

Operator
Country
US
Launch date
2025-12-08
Launch site
AFETR
Launch vehicle
Mass (kg)
RCS (m²)

Purposes: comms

External: N2YO · Heavens-Above · Gunter

§ Orbital elements

Epoch: 2026-09-20T07:38:40.040736Z

Period
94.27 min
Inclination
43.0004°
Eccentricity
0.0001630
Mean motion
15.27587005 rev/d
Perigee alt
481.9 km
Apogee alt
484.1 km
Semi-major
6,861.2 km
B*
3.6212e-4
RAAN
4.3102°
Arg perigee
270.9237°
Mean anomaly
89.1428°
Rev number
4,505

§ Raw data

STARLINK-357721 66976U 25288T   26263.31851899  .00009718  00000+0  36212-3 0  99932 66976  43.0004   4.3102 0001630 270.9237  89.1428 15.27587005 45053

JSON: /api/v1/satellites/66976 · /tle

For live sub-satellite position, see the globe view (requires WebGL).

§ Visibility from observer

Set your observer location to see the next 7 days of passes ≥ 10°. The values pass through the URL so the page stays shareable.

No JS? Fill the form by hand. The geolocation button needs JavaScript.